Find Starlink 35638

NORAD ID: 66169 Int'l Des: 2025-240 Owner: SPXS Country: US Constellation: starlink operational
LEOCIRCULAR

Current View

Loading 3D Globe...

About Starlink 35638

Description loading...

Upcoming Passes

Passes for default location (London). Set your location on the main map for personalized predictions.

Altitude History

Loading altitude history...

Two-Line Element Set

1 66169U 25240Z 26146.06816733 .00010716 00000-0 37333-3 0 9991
2 66169 53.1584 63.5088 0001155 68.5209 291.5915 15.30206266 33838
Epoch: May 26, 2026 • Age: 13 hours

Current Status

Altitude 475.6 km
Velocity 7.63 km/s
Sub-Earth Point 6.22°N, 128.21°E
Launch Date Oct 25, 2025
Age 0.5 years
Type internet

Technical Details

Classification Payload
Mass 575.00 kg
Dry Mass 530.00 kg
Total Mass 575.00 kg
Length 0.30 m
Diameter 4.10 m
Span 29.00 m
Shape Box + pan
Manufacturer SPXS
Bus Type Starlink V2MO
Phase Status In Orbit
Owner/State SPXS/US

Most Searched